Location: Unspecified
(0.0000°N, 0.0000°E)
Time: 22:32:54
(UTC+00:00)

Courier 1B - All Passes

Search period start: 28 May 2022 00:00
Search period end: 07 June 2022 00:00
Orbit: 962 x 1209 km, 28.3° (Epoch: 27 May)

Date Brightness Start Highest point End Pass type
(mag) Time Alt. Az. Time Alt. Az. Time Alt. Az.
28 May - 01:37:38 10° NW 01:44:10 80° NNE 01:50:40 10° ESE night (unlit)
28 May - 03:32:52 10° W 03:38:16 28° SSW 03:43:46 10° SSE visible
28 May - 11:16:38 10° SSW 11:22:21 23° SSE 11:28:13 10° ESE daylight
28 May - 13:09:18 10° SW 13:17:02 70° SSE 13:24:52 10° ENE daylight
28 May - 15:04:23 10° W 15:11:33 38° NNW 15:18:39 10° NE daylight
28 May - 17:03:35 10° NW 17:06:44 13° NNW 17:09:53 10° N daylight
28 May - 22:51:52 10° NNW 22:55:55 16° NNE 22:59:52 10° ENE night (unlit)
29 May - 00:43:57 10° NW 00:50:25 56° NNE 00:56:44 10° ESE night (unlit)
29 May - 02:38:28 10° W 02:44:26 38° SSW 02:50:26 10° SE visible
29 May - 04:37:15 10° SW 04:39:10 11° SSW 04:41:05 10° S visible
29 May - 10:23:41 10° SSW 10:28:10 17° SSE 10:32:46 10° ESE daylight
29 May - 12:15:37 10° SW 12:23:00 52° SSE 12:30:36 10° ENE daylight
29 May - 14:09:56 10° WSW 14:17:29 52° NNW 14:25:04 10° NE daylight
29 May - 16:07:36 10° WNW 16:12:26 17° NNW 16:17:13 10° NNE daylight
29 May - 21:59:09 10° N 22:01:47 12° NNE 22:04:22 10° NE visible
29 May - 23:50:22 10° NW 23:56:37 40° NNE 00:02:38 10° E night (unlit)
30 May - 01:44:16 10° WNW 01:50:39 55° SSW 01:56:58 10° SE night (unlit)
30 May - 03:41:24 10° WSW 03:45:04 15° SSW 03:48:46 10° S visible
30 May - 09:31:18 10° S 09:33:55 12° SSE 09:36:35 10° SE daylight
30 May - 11:22:07 10° SW 11:28:58 38° SSE 11:36:04 10° E daylight
30 May - 13:15:45 10° WSW 13:23:25 70° NNW 13:31:16 10° NE daylight
30 May - 15:12:16 10° WNW 15:18:11 23° NNW 15:24:06 10° NNE daylight
30 May - 22:56:54 10° NNW 23:02:44 29° NNE 23:08:19 10° E night (unlit)
31 May - 00:50:14 10° WNW 00:56:54 78° SSW 01:03:24 10° SE night (unlit)
31 May - 02:46:19 10° WSW 02:51:06 21° SSW 02:55:53 10° SSE night (unlit)
31 May - 10:28:48 10° SSW 10:34:55 28° SSE 10:41:16 10° E daylight
31 May - 12:21:47 10° WSW 12:29:24 88° SSE 12:37:18 10° ENE daylight
31 May - 14:17:21 10° W 14:24:01 30° NNW 14:30:44 10° NNE daylight
31 May - 16:18:13 10° NNW 16:19:31 10° NNW 16:20:49 10° N daylight
31 May - 22:03:32 10° NNW 22:08:45 22° NNE 22:13:45 10° ENE visible
31 May - 23:56:21 10° NW 00:03:08 75° NNE 00:09:39 10° ESE night (unlit)
01 Jun - 01:51:37 10° W 01:57:12 29° SSW 02:02:46 10° SSE night (unlit)
01 Jun - 09:35:44 10° SSW 09:40:50 20° SSE 09:46:06 10° ESE daylight
01 Jun - 11:28:02 10° SW 11:35:24 66° SSE 11:43:07 10° ENE daylight
01 Jun - 13:22:46 10° W 13:29:53 41° NNW 13:37:10 10° NE daylight
01 Jun - 15:21:20 10° NW 15:25:06 14° NNW 15:28:53 10° N daylight
01 Jun - 21:10:20 10° NNW 21:14:39 17° NNE 21:18:49 10° ENE visible
01 Jun - 23:02:35 10° NW 23:09:20 53° NNE 23:15:45 10° ESE night (unlit)
02 Jun - 00:57:09 10° W 01:03:24 42° SSW 01:09:29 10° SE night (unlit)
02 Jun - 02:55:47 10° SW 02:58:00 12° SSW 03:00:11 10° S night (unlit)
02 Jun - 08:43:03 10° S 08:46:42 15° SSE 08:50:28 10° SE daylight
02 Jun - 10:34:28 10° SW 10:41:26 48° SSE 10:48:45 10° ENE daylight
02 Jun - 12:28:29 10° WSW 12:35:49 55° NNW 12:43:26 10° NE daylight
02 Jun - 14:25:42 10° WNW 14:30:47 18° NNW 14:35:54 10° NNE daylight
02 Jun - 20:17:24 10° N 20:20:25 13° NNE 20:23:23 10° NE visible
02 Jun - 22:08:55 10° NW 22:15:27 39° NNE 22:21:40 10° E visible
03 Jun - 00:02:53 10° WNW 00:09:37 60° SSW 00:16:03 10° SE night (unlit)
03 Jun - 01:59:58 10° WSW 02:03:57 16° SSW 02:07:53 10° SSE night (unlit)
03 Jun - 07:51:59 10° SSE 07:52:30 10° SSE 07:53:01 10° SSE daylight
03 Jun - 09:41:07 10° SW 09:47:28 34° SSE 09:54:08 10° E daylight
03 Jun - 11:34:26 10° WSW 11:41:48 74° NNW 11:49:34 10° NE daylight
03 Jun - 13:30:35 10° WNW 13:36:32 24° NNW 13:42:36 10° NNE daylight
03 Jun - 21:15:21 10° NNW 21:21:29 29° NNE 21:27:19 10° E visible
03 Jun - 23:08:46 10° WNW 23:15:50 84° SSW 23:22:29 10° ESE night (unlit)
04 Jun - 01:04:51 10° WSW 01:10:00 23° SSW 01:15:02 10° SSE night (unlit)
04 Jun - 08:47:58 10° SSW 08:53:29 25° SSE 08:59:15 10° E daylight
04 Jun - 10:40:37 10° WSW 10:47:51 83° SSE 10:55:31 10° ENE daylight
04 Jun - 12:35:51 10° W 12:42:22 32° NNW 12:49:07 10° NNE daylight
04 Jun - 14:35:46 10° NNW 14:37:51 11° NNW 14:39:57 10° N daylight
04 Jun - 20:21:54 10° NNW 20:27:25 22° NNE 20:32:41 10° ENE visible
04 Jun - 22:14:49 10° NW 22:22:00 71° NNE 22:28:44 10° ESE visible
05 Jun - 00:10:05 10° W 00:16:07 32° SSW 00:21:56 10° SSE night (unlit)
05 Jun - 07:55:04 10° SSW 07:59:28 18° SSE 08:04:00 10° ESE daylight
05 Jun - 09:47:00 10° SW 09:53:56 60° SSE 10:01:18 10° ENE daylight
05 Jun - 11:41:27 10° W 11:48:17 42° NNW 11:55:29 10° NE daylight
05 Jun - 13:39:32 10° NW 13:43:27 15° NNW 13:47:26 10° N daylight
05 Jun - 19:28:36 10° NNW 19:33:13 17° NNE 19:37:41 10° ENE visible
05 Jun - 21:20:58 10° NW 21:28:06 51° NNE 21:34:48 10° ESE visible
05 Jun - 23:15:34 10° WNW 23:22:17 46° SSW 23:28:39 10° SE night (unlit)
06 Jun - 01:13:54 10° SW 01:16:49 13° SSW 01:19:42 10° S night (unlit)
06 Jun - 07:02:42 10° S 07:05:23 12° SSE 07:08:06 10° SE daylight
06 Jun - 08:53:34 10° SW 09:00:02 43° SSE 09:06:53 10° E daylight
06 Jun - 10:47:17 10° WSW 10:54:17 57° NNW 11:01:43 10° NE daylight
06 Jun - 12:44:08 10° WNW 12:49:09 19° NNW 12:54:18 10° NNE daylight
06 Jun - 18:35:36 10° N 18:38:55 13° NNE 18:42:11 10° NE visible
06 Jun - 20:27:15 10° NW 20:34:08 38° NNE 20:40:38 10° E visible
06 Jun - 22:21:15 10° WNW 22:28:27 65° SSW 22:35:12 10° SE visible
